[[{"header":{"parameterUnit":"m.s-1","parameterCategory":1,"la1":30.2991,"la2":30.254,"lo1":-89.0895,"lo2":-89.0444,"dy":0.0017,"dx":0.0017,"nx":28,"ny":28,"refTime":"2025-01-08T03:00:00:Z","depth":0,"parameterNumber":2,"parameterNumberName":"U-component_of_WINDS"},"data":[0,0,0,0,0,0,0,0,0,0,0,0,0,0,0,0,0,0,0,0,0,0,0,0,0,0,0,0,0,0,0,0,0,0,0,0,0,0,0,0,0,0,0,0,0,0,0,0,0,0,0,0,0,0,0,0,0,0,1.332,1.332,0,1.3335,1.3335,1.3336,1.3327,1.3327,1.3327,1.3326,1.3341,1.3342,1.3343,0,0,0,0,0,0,0,0,0,0,0,0,0,1.3284,1.3285,1.332,1.332,1.332,1.3335,1.3335,1.3336,1.3327,1.3327,1.3326,1.3326,1.3341,1.3342,1.3343,0,0,0,0,0,0,0,0,0,0,0,0,0,1.33,1.3285,1.332,1.3318,1.3318,1.3335,1.3335,1.3336,1.3328,1.3327,1.3326,1.3326,1.3341,1.3342,1.3343,1.3363,0,0,1.3347,1.3347,0,0,0,0,0,0,0,0,1.3299,1.3301,1.3318,1.3318,1.3318,1.3329,1.3328,1.3345,1.3328,1.3324,1.3326,1.3325,1.3338,1.3339,1.3343,1.3363,1.3364,1.3347,1.3347,1.3348,1.3348,0,0,0,0,0,0,0,1.3298,1.33,1.3326,1.3318,1.3318,1.3317,1.3318,1.3331,1.3334,1.3324,1.3324,1.3326,1.3337,1.3342,1.3343,1.3364,1.3347,1.3348,1.3348,1.3349,1.3402,1.3403,0,0,0,0,0,0,1.3297,1.33,1.3325,1.3326,1.3307,1.3318,1.3319,1.3326,1.3334,1.3334,1.3326,1.3325,1.334,1.3342,1.3344,1.3368,1.3348,1.3349,1.335,1.3402,1.3403,1.3403,0,0,0,0,0,0,1.3296,1.3299,1.3325,1.3313,1.3316,1.3319,1.3326,1.3327,1.3331,1.3335,1.3336,1.333,1.334,1.3342,1.3358,1.3368,1.335,1.3351,1.3401,1.3402,1.3403,1.3416,0,0,0,0,0,0,1.3295,1.3299,1.3306,1.3313,1.3317,1.3339,1.3327,1.3327,1.3333,1.3332,1.3339,1.334,1.334,1.3357,1.3359,1.337,1.3351,1.34,1.3401,1.3403,1.3414,1.3417,1.3419,0,0,0,0,0,1.3294,1.3309,1.3307,1.331,1.3326,1.3339,1.3341,1.3341,1.3334,1.3341,1.3344,1.334,1.3367,1.3358,1.3361,1.3372,1.3399,1.3401,1.3403,1.3413,1.3417,1.3419,0,0,0,0,0,0,1.3302,1.331,1.3307,1.3325,1.3332,1.3338,1.3347,1.3344,1.3353,1.3351,1.3351,1.3352,1.3369,1.3372,1.3362,1.3392,1.3382,1.3384,1.3389,1.3392,1.3395,1.3393,1.3352,0,0,0,0,0,1.3306,1.3317,1.3323,1.3338,1.3341,1.3344,1.335,1.3349,1.3356,1.3358,1.3362,1.3369,1.338,1.3386,1.3396,1.3415,1.3417,1.3424,1.3427,1.3429,1.3431,1.3442,1.3445,1.3409,1.3409,1.3409,0,0,1.3314,1.332,1.3326,1.3339,1.3345,1.3356,1.3346,1.3358,1.3366,1.336,1.3376,1.3379,1.3387,1.3405,1.3413,1.3408,1.3441,1.3431,1.3432,1.3433,1.3444,1.3447,1.345,1.341,1.341,1.3409,0,0,1.3335,1.334,1.3353,1.3359,1.3367,1.3369,1.3373,1.338,1.3382,1.3398,1.3394,1.3404,1.3421,1.3427,1.3433,1.3457,1.3453,1.3461,1.3473,1.3484,1.3487,1.349,1.3499,1.3502,1.3463,1.3463,1.3463,0,1.3344,1.336,1.336,1.3373,1.3379,1.3375,1.3389,1.3395,1.3406,1.341,1.3405,1.3427,1.3432,1.3452,1.3458,1.3463,1.3467,1.3459,1.3487,1.3489,1.3492,1.35,1.3504,1.3463,1.3463,1.3463,1.3463,0,1.3371,1.3383,1.3392,1.3404,1.3411,1.3424,1.3427,1.3435,1.3434,1.3437,1.3453,1.3459,1.347,1.3475,1.3474,1.3495,1.3492,1.3487,1.3477,1.3496,1.3504,1.3508,1.3465,1.3464,1.3464,1.3464,0,0,1.3395,1.3408,1.3412,1.3417,1.3427,1.3436,1.345,1.3461,1.3468,1.3476,1.3487,1.3503,1.3499,1.3505,1.3505,1.3515,1.3535,1.3509,1.3509,1.3513,1.3559,1.3562,1.3566,1.3533,1.3533,1.3534,1.3558,0,1.3416,1.344,1.3441,1.3463,1.3474,1.3471,1.3483,1.3491,1.3494,1.3504,1.3508,1.3519,1.3513,1.3517,1.3526,1.353,1.3544,1.3529,1.3543,1.3544,1.3541,1.357,1.3574,1.3596,1.3561,1.3562,1.3562,0,1.3444,1.3453,1.3476,1.3486,1.349,1.3501,1.3512,1.3522,1.3531,1.3533,1.3541,1.354,1.3554,1.3544,1.3564,1.3554,1.356,1.3563,1.3564,1.3565,1.3554,1.3572,1.3604,1.3607,1.3567,1.3567,1.3567,0,1.3459,1.3478,1.3494,1.3499,1.3511,1.3518,1.3523,1.3532,1.3539,1.3549,1.3554,1.3566,1.3572,1.3581,1.3583,1.3576,1.3604,1.3594,1.3606,1.3606,1.3611,1.361,1.3644,1.3616,1.3616,1.3616,1.3616,0,1.3482,1.3496,1.3502,1.3512,1.3528,1.353,1.3546,1.355,1.3558,1.3569,1.3568,1.3579,1.3581,1.3593,1.3595,1.3611,1.3614,1.3616,1.3616,1.3616,1.3616,1.3619,1.3618,1.3617,1.3616,1.3616,1.3616,0,1.3502,1.3506,1.3524,1.3534,1.3537,1.3548,1.3556,1.3566,1.357,1.3584,1.3588,1.3594,1.3607,1.3611,1.3627,1.3628,1.3648,1.3647,1.3645,1.3644,1.3656,1.3655,1.3693,1.3698,1.3667,1.3667,1.3667,0,1.3516,1.3527,1.3538,1.3546,1.3551,1.3563,1.3571,1.3574,1.3582,1.3594,1.3603,1.3616,1.3627,1.3648,1.3654,1.3667,1.3666,1.3678,1.3667,1.3667,1.3666,1.3665,1.3666,1.368,1.368,1.368,1.3681,0,1.354,1.3542,1.3553,1.3566,1.3576,1.3585,1.3595,1.3601,1.3606,1.3615,1.3629,1.3637,1.3654,1.3667,1.368,1.3686,1.3684,1.3684,1.3688,1.3687,1.3685,1.3686,1.365,1.3683,1.3683,1.3683,1.3683,1.3682,1.3557,1.3567,1.3577,1.359,1.3598,1.3607,1.3617,1.3623,1.3635,1.3649,1.365,1.3665,1.3675,1.3692,1.3699,1.3711,1.3707,1.3712,1.3713,1.3714,1.3715,1.3684,1.3713,1.3713,1.3713,1.3713,1.3713,0,1.3582,1.3588,1.36,1.3614,1.3625,1.3623,1.3634,1.3643,1.3656,1.3666,1.3677,1.3693,1.3707,1.3714,1.3728,1.3736,1.3736,1.374,1.3739,1.374,1.3718,1.3713,1.374,1.374,1.374,1.374,1.374,1.374,1.3595,1.3612,1.3616,1.3637,1.3644,1.3659,1.3665,1.3674,1.3682,1.3701,1.3712,1.3717,1.3726,1.3741,1.3753,1.3755,1.376,1.3764,1.3765,1.3744,1.3741,1.3739,1.3735,1.3765,1.3765,1.3787,1.3787,1.3787]},{"header":{"parameterUnit":"m.s-1","parameterCategory":1,"la1":30.2991,"la2":30.254,"lo1":-89.0895,"lo2":-89.0444,"dy":0.0017,"dx":0.0017,"nx":28,"ny":28,"refTime":"2025-01-08T03:00:00:Z","depth":0,"parameterNumber":3,"parameterNumberName":"V-component_of_WINDS"},"data":[0,0,0,0,0,0,0,0,0,0,0,0,0,0,0,0,0,0,0,0,0,0,0,0,0,0,0,0,0,0,0,0,0,0,0,0,0,0,0,0,0,0,0,0,0,0,0,0,0,0,0,0,0,0,0,0,0,0,-4.7728,-4.7729,0,-4.7787,-4.7788,-4.7788,-4.7771,-4.777,-4.7769,-4.7768,-4.7823,-4.7826,-4.7828,0,0,0,0,0,0,0,0,0,0,0,0,0,-4.7598,-4.7601,-4.7728,-4.7729,-4.773,-4.7787,-4.7788,-4.7789,-4.7771,-4.777,-4.7769,-4.7767,-4.7822,-4.7825,-4.7828,0,0,0,0,0,0,0,0,0,0,0,0,0,-4.7655,-4.7602,-4.7728,-4.7728,-4.7729,-4.7787,-4.7788,-4.7789,-4.7772,-4.777,-4.7768,-4.7767,-4.7821,-4.7825,-4.7829,-4.7889,0,0,-4.7841,-4.7842,0,0,0,0,0,0,0,0,-4.7652,-4.766,-4.7728,-4.7728,-4.7729,-4.777,-4.7762,-4.7822,-4.7772,-4.7755,-4.7768,-4.7766,-4.7807,-4.7812,-4.7826,-4.7891,-4.7894,-4.7841,-4.7843,-4.7845,-4.7846,0,0,0,0,0,0,0,-4.7648,-4.7658,-4.7751,-4.7729,-4.773,-4.7724,-4.7731,-4.7773,-4.779,-4.7757,-4.7756,-4.7763,-4.7807,-4.7823,-4.7828,-4.7894,-4.7841,-4.7844,-4.7847,-4.7848,-4.8013,-4.8015,0,0,0,0,0,0,-4.7644,-4.7654,-4.775,-4.7753,-4.7686,-4.7728,-4.7735,-4.7759,-4.779,-4.7793,-4.7765,-4.7762,-4.7817,-4.7823,-4.7829,-4.7903,-4.7845,-4.7849,-4.7851,-4.8011,-4.8014,-4.8016,0,0,0,0,0,0,-4.7642,-4.7653,-4.7747,-4.7704,-4.7715,-4.7732,-4.7759,-4.7761,-4.7777,-4.7796,-4.7798,-4.7778,-4.7816,-4.7824,-4.7875,-4.7905,-4.785,-4.7854,-4.8009,-4.8012,-4.8015,-4.805,0,0,0,0,0,0,-4.7638,-4.7652,-4.7676,-4.7704,-4.7718,-4.7793,-4.7761,-4.7763,-4.7784,-4.7782,-4.7809,-4.7812,-4.7815,-4.7869,-4.7879,-4.7909,-4.7857,-4.8006,-4.801,-4.8014,-4.8046,-4.8054,-4.806,0,0,0,0,0,-4.7633,-4.7682,-4.7677,-4.7689,-4.7748,-4.7795,-4.7802,-4.7806,-4.7787,-4.781,-4.7823,-4.7811,-4.79,-4.7875,-4.7885,-4.7917,-4.8004,-4.8009,-4.8014,-4.8043,-4.8052,-4.806,0,0,0,0,0,0,-4.7654,-4.7685,-4.768,-4.774,-4.7765,-4.7792,-4.7821,-4.7815,-4.7845,-4.7841,-4.7843,-4.785,-4.7902,-4.7914,-4.7886,-4.7977,-4.7949,-4.7956,-4.7968,-4.7977,-4.7984,-4.798,-4.786,0,0,0,0,0,-4.7666,-4.7703,-4.7727,-4.7777,-4.779,-4.7804,-4.7824,-4.7826,-4.7851,-4.7861,-4.7877,-4.7901,-4.7934,-4.7956,-4.7988,-4.8048,-4.8054,-4.8075,-4.8082,-4.8088,-4.8094,-4.8128,-4.8138,-4.8031,-4.8031,-4.8031,0,0,-4.769,-4.7712,-4.7734,-4.7782,-4.7802,-4.7839,-4.7813,-4.7853,-4.788,-4.7866,-4.7916,-4.7929,-4.7956,-4.8012,-4.8038,-4.8024,-4.8125,-4.8094,-4.8098,-4.8101,-4.8134,-4.8144,-4.8153,-4.8034,-4.8034,-4.8033,0,0,-4.7753,-4.7773,-4.7818,-4.7839,-4.787,-4.7879,-4.7889,-4.7918,-4.7926,-4.7977,-4.7968,-4.8,-4.8057,-4.8077,-4.8095,-4.8168,-4.8159,-4.8178,-4.8215,-4.8248,-4.8257,-4.8264,-4.8292,-4.8301,-4.8184,-4.8184,-4.8184,0,-4.7778,-4.7836,-4.7841,-4.7883,-4.7905,-4.7896,-4.7941,-4.7961,-4.7999,-4.8014,-4.7998,-4.8072,-4.8089,-4.8151,-4.8169,-4.8183,-4.8196,-4.8175,-4.8255,-4.8263,-4.827,-4.8296,-4.8306,-4.8186,-4.8186,-4.8186,-4.8185,0,-4.7866,-4.7906,-4.7938,-4.7979,-4.8004,-4.8047,-4.8059,-4.8083,-4.8082,-4.8093,-4.8145,-4.8166,-4.8202,-4.8217,-4.8215,-4.8279,-4.827,-4.8255,-4.8226,-4.8283,-4.8307,-4.8317,-4.8189,-4.8189,-4.8188,-4.8187,0,0,-4.7943,-4.7988,-4.8,-4.8019,-4.8054,-4.8084,-4.8127,-4.8165,-4.8186,-4.8213,-4.825,-4.8299,-4.8287,-4.8307,-4.8307,-4.8337,-4.8395,-4.8318,-4.8319,-4.8333,-4.8468,-4.8479,-4.8491,-4.8389,-4.8391,-4.8392,-4.8466,0,-4.801,-4.8088,-4.8095,-4.8164,-4.8202,-4.8195,-4.8233,-4.8257,-4.8269,-4.8301,-4.8312,-4.8348,-4.8328,-4.834,-4.8369,-4.8382,-4.8422,-4.8377,-4.8422,-4.8424,-4.8417,-4.8504,-4.8516,-4.8584,-4.8475,-4.8477,-4.8478,0,-4.8099,-4.8132,-4.8206,-4.8237,-4.8253,-4.8287,-4.8323,-4.8354,-4.8382,-4.8388,-4.8412,-4.841,-4.8453,-4.8423,-4.8484,-4.8453,-4.8472,-4.8481,-4.8484,-4.8489,-4.8455,-4.8512,-4.8606,-4.8616,-4.8493,-4.8492,-4.8491,0,-4.8149,-4.8212,-4.8265,-4.8281,-4.8318,-4.8343,-4.8359,-4.8385,-4.8408,-4.8439,-4.8454,-4.8489,-4.8509,-4.8535,-4.8542,-4.8519,-4.8603,-4.8573,-4.8609,-4.8609,-4.8627,-4.8626,-4.8727,-4.8638,-4.8638,-4.8638,-4.8637,0,-4.8224,-4.827,-4.8289,-4.8321,-4.8372,-4.838,-4.843,-4.8444,-4.8468,-4.8503,-4.8498,-4.853,-4.8537,-4.8571,-4.8576,-4.8626,-4.8634,-4.864,-4.8641,-4.8641,-4.8641,-4.8654,-4.865,-4.864,-4.864,-4.8639,-4.8639,0,-4.8289,-4.8303,-4.8361,-4.8393,-4.8402,-4.8438,-4.8465,-4.8496,-4.8507,-4.8551,-4.8562,-4.8579,-4.8619,-4.8628,-4.8674,-4.8678,-4.8738,-4.8733,-4.8729,-4.8729,-4.8765,-4.8762,-4.8878,-4.8894,-4.8794,-4.8795,-4.8796,0,-4.8337,-4.8372,-4.8409,-4.8433,-4.8451,-4.8489,-4.8514,-4.8522,-4.8547,-4.8583,-4.861,-4.8649,-4.8682,-4.8745,-4.8761,-4.8797,-4.8794,-4.8832,-4.8799,-4.8799,-4.8796,-4.8794,-4.8798,-4.8839,-4.884,-4.884,-4.8841,0,-4.8419,-4.8426,-4.8462,-4.8501,-4.8531,-4.8562,-4.8591,-4.861,-4.8623,-4.8651,-4.8693,-4.8718,-4.8767,-4.8807,-4.8843,-4.8858,-4.8852,-4.8852,-4.8862,-4.8863,-4.886,-4.8863,-4.8747,-4.8849,-4.8848,-4.8848,-4.8847,-4.8847,-4.8478,-4.851,-4.8542,-4.8583,-4.8606,-4.8634,-4.8666,-4.8682,-4.8718,-4.876,-4.8762,-4.8808,-4.8836,-4.8884,-4.8902,-4.8937,-4.8925,-4.894,-4.8944,-4.8948,-4.8952,-4.8854,-4.8944,-4.8943,-4.8943,-4.8943,-4.8943,0,-4.8562,-4.8582,-4.862,-4.8663,-4.8695,-4.8689,-4.8721,-4.8748,-4.8789,-4.8817,-4.8849,-4.8898,-4.8937,-4.8956,-4.8994,-4.9019,-4.9017,-4.9029,-4.9027,-4.9031,-4.896,-4.8947,-4.903,-4.903,-4.903,-4.903,-4.903,-4.903,-4.8609,-4.8664,-4.8674,-4.874,-4.876,-4.8807,-4.8826,-4.8852,-4.8874,-4.893,-4.8963,-4.8976,-4.9,-4.9041,-4.9076,-4.9081,-4.9095,-4.9109,-4.9112,-4.9045,-4.9036,-4.9028,-4.9016,-4.9112,-4.9112,-4.9181,-4.9181,-4.9182]}]]